User: anonymous   Login
Location: Drayton Valley
(53.2170°N, 114.9830°W)
Time: 08:24:29
(UTC-07:00)
Language:

MOZ.5/SAFIR/RUBIN 5/SL-8 - Orbit

View from above orbital plane
View from above orbital plane
View from above satellite
View from above satellite

Ground track
Ground track

The orbit data is extracted from the following two-line orbital elements,

1 28898U 05043G   14351.61260236  .00000851  00000-0  18717-3 0    56
2 28898 097.8346 171.0732 0020422 175.3250 226.5534 14.59688285486683
Epoch (UTC): 17 December 2014 14:42:08
Eccentricity: 0.0020422
inclination: 97.8346°
perigee height: 680 km
apogee height: 708 km
right ascension of ascending node: 171.0732°
argument of perigee: 175.3250°
revolutions per day: 14.59688285
mean anomaly at epoch: 226.5534°
orbit number at epoch: 48668

The dashed part of the orbit path shows where the satellite is in the earth's shadow,  

DLR